STARLINK-32277 (60376 NORAD) Tracking and Keplerian Element Data

This shows tracking and keplerian element data for the satellite.

Feedback or suggestion? Click here.




ElementValue
Catalog60376
NameSTARLINK-32277
Epoch Orbit1197
Epoch Day286.43716411
Epoch Year2024
RAAN178.7754
Inclination53.1605
Eccentricity0.000132
Argument of Perigee52.8587
Mean Anonmoly307.2538
Mean Motion15.39610028
Decay Rate-3.574E-05
L11 60376U 24138X 24286.43716411 -.00003574 00000+0 -79423-4 0 9998
L22 60376 53.1605 178.7754 0001320 52.8587 307.2538 15.39610028 11975



Live tracking and technical data element details for STARLINK-32277 (NORAD 60376). STARLINK-32277 can be tracked NOW for your location showing map with azimuth and elevation plus other details from your city location.







IsCatalogInMostPopularTable: catalog: 60376, numindb: 8
Update: records affected: 1



GetName: 60376 STARLINK-32277

Hit Count: updated at: Wed, 04 Dec 2024 19:41:52 GMT